Location: Unspecified
(0.0000°N, 0.0000°E)
Time: 08:01:04
(UTC+00:00)

Hubble Space Telescope - Visible Passes

Search period start: 22 January 2017 00:00
Search period end: 01 February 2017 00:00
Orbit: 538 x 542 km, 28.5° (Epoch: 20 January)

Date Brightness Start Highest point End Pass type
(mag) Time Alt. Az. Time Alt. Az. Time Alt. Az.
22 Jan 2.2 19:56:22 10° NW 19:58:33 29° NW 19:58:33 29° NW visible
23 Jan 0.7 19:46:23 10° WNW 19:50:18 80° NW 19:50:18 80° NW visible
24 Jan 1.1 19:36:29 10° WNW 19:40:35 63° SSW 19:42:07 36° SE visible
25 Jan 1.9 19:26:43 10° WNW 19:30:39 43° SSW 19:33:56 14° SE visible
26 Jan 2.5 05:40:48 10° SW 05:44:34 33° SSE 05:48:18 10° E visible
26 Jan 2.6 19:17:04 10° W 19:20:44 30° SSW 19:24:25 10° SSE visible
27 Jan 1.8 05:30:38 10° SW 05:34:38 47° SSE 05:38:38 10° ENE visible
27 Jan 3.1 19:07:36 10° W 19:10:50 22° SSW 19:14:05 10° SSE visible
28 Jan 3.9 03:44:09 12° SE 03:44:09 12° SE 03:45:07 10° SE visible
28 Jan 1.0 05:20:34 10° SW 05:24:42 70° SSE 05:28:50 10° ENE visible
28 Jan 3.5 18:58:21 10° WSW 19:00:57 16° SSW 19:03:33 10° S visible
29 Jan 4.1 03:35:59 11° ESE 03:35:59 11° ESE 03:36:14 10° ESE visible
29 Jan 0.7 05:11:26 15° WSW 05:14:46 80° NNW 05:18:55 10° ENE visible
29 Jan 3.8 18:49:34 10° SW 18:51:05 12° SSW 18:52:36 10° S visible
30 Jan 0.9 05:03:14 32° W 05:04:50 54° NNW 05:08:53 10° NE visible
31 Jan 1.4 04:54:55 37° NNW 04:54:55 37° NNW 04:58:45 10° NE visible
